Weather History for Jackson, WY

Change the Weather History Date:

Monday, March 10, 2014

  Actual Average Record
Temperature  
Mean Temperature 36 °F -  
Max Temperature 42 °F 39 °F 56 °F (1989)
Min Temperature 30 °F 13 °F -14 °F (1969)
Degree Days  
Heating Degree Days 29    
Moisture  
Dew Point 32 °F    
Average Humidity 85    
Maximum Humidity 100    
Minimum Humidity 57    
Precipitation  
Precipitation 0.01 in - - ()
Sea Level Pressure  
Sea Level Pressure 29.94 in    
Wind  
Wind Speed 10 mph (SSW)    
Max Wind Speed 26 mph    
Max Gust Speed 31 mph    
Visibility 8 miles    
Events Rain , Snow    
Averages and records for this station are not official NWS values.
T = Trace of Precipitation, MM = Missing Value Source: NWS Daily Summary

Daily Weather History Graph

Daily Weather History Graph

Search for Another Location

Airport:

Trip Planner

Search our weather history database for the weather conditions in past years. The results will help you decide how hot, cold, wet, or windy it might be!

Date:

Astronomy

Mar. 10, 2014 Rise Set
Actual Time 7:43 AM MDT 7:23 PM MDT
Civil Twilight 7:15 AM MDT 7:51 PM MDT
Nautical Twilight 6:42 AM MDT 8:25 PM MDT
Astronomical Twilight 6:08 AM MDT 8:58 PM MDT
Moon 2:02 PM MDT (3/10) 4:05 AM MDT (3/10)
Length of Visible Light 12h 36m
Length of Day
11h 39m
Waxing Gibbous, 70% of the Moon is Illuminated
Mar 10
Waxing Gibbous
Mar 16
Full
Mar 23
Last Quarter
Mar 30
New
Apr 7
First Quarter

Hourly Weather History & Observations

Time (MDT) Temp. Windchill Dew Point Humidity Pressure Visibility Wind Dir Wind Speed Gust Speed Precip Events Conditions
12:15 AM 37.4 °F 33.8 °F 28.4 °F 70% 30.14 in 10.0 mi SSW 4.6 mph - N/A   Overcast
12:35 AM 37.4 °F - 28.4 °F 70% 30.14 in 10.0 mi Calm Calm - N/A   Overcast
12:55 AM 39.2 °F 35.0 °F 28.4 °F 65% 30.13 in 10.0 mi SSW 5.8 mph - N/A   Overcast
1:15 AM 39.2 °F 31.6 °F 28.4 °F 65% 30.12 in 10.0 mi SSW 12.7 mph - N/A   Overcast
1:35 AM 37.4 °F 29.8 °F 30.2 °F 75% 30.11 in 10.0 mi SSW 11.5 mph - N/A   Overcast
1:55 AM 39.2 °F 32.5 °F 28.4 °F 65% 30.11 in 10.0 mi SSW 10.4 mph - N/A   Overcast
2:15 AM 39.2 °F 30.2 °F 30.2 °F 70% 30.09 in 10.0 mi SSW 17.3 mph - N/A   Overcast
2:35 AM 37.4 °F 28.5 °F 30.2 °F 75% 30.09 in 10.0 mi SSW 15.0 mph - N/A   Overcast
2:55 AM 37.4 °F 28.5 °F 32.0 °F 81% 30.09 in 10.0 mi SSW 15.0 mph - N/A   Overcast
3:15 AM 37.4 °F 29.3 °F 33.8 °F 87% 30.07 in 10.0 mi SSW 12.7 mph - N/A   Overcast
3:35 AM 37.4 °F 28.9 °F 33.8 °F 87% 30.07 in 10.0 mi SSW 13.8 mph - N/A   Overcast
3:55 AM 37.4 °F 29.8 °F 33.8 °F 87% 30.06 in 10.0 mi South 11.5 mph - N/A   Overcast
4:15 AM 35.6 °F 28.0 °F 33.8 °F 93% 30.05 in 10.0 mi SSW 10.4 mph - N/A   Overcast
4:35 AM 35.6 °F 28.6 °F 33.8 °F 93% 30.05 in 10.0 mi SW 9.2 mph - N/A   Overcast
4:55 AM 35.6 °F 31.7 °F 33.8 °F 93% 30.04 in 10.0 mi SW 4.6 mph - N/A   Overcast
5:15 AM 35.6 °F 29.2 °F 33.8 °F 93% 30.04 in - SW 8.1 mph - N/A   Overcast
5:35 AM 35.6 °F 30.7 °F 33.8 °F 93% 30.02 in 10.0 mi WSW 5.8 mph - N/A   Overcast
5:55 AM 35.6 °F 28.6 °F 33.8 °F 93% 30.01 in 10.0 mi SW 9.2 mph - N/A   Overcast
6:15 AM 35.6 °F 27.5 °F 33.8 °F 93% 30.00 in 10.0 mi WSW 11.5 mph - N/A   Overcast
6:35 AM 35.6 °F 27.1 °F 33.8 °F 93% 29.99 in 10.0 mi SW 12.7 mph - N/A   Mostly Cloudy
6:51 AM 35.6 °F 27.1 °F 33.8 °F 93% 29.97 in 10.0 mi SSW 12.7 mph - N/A   Mostly Cloudy
7:53 AM 37.4 °F 30.3 °F 33.8 °F 87% 29.95 in 10.0 mi SSW 10.4 mph - N/A   Mostly Cloudy
8:53 AM 37.4 °F 30.8 °F 33.8 °F 87% 29.93 in 10.0 mi SW 9.2 mph - N/A   Mostly Cloudy
9:55 AM 37.4 °F 30.8 °F 33.8 °F 87% 29.90 in 10.0 mi South 9.2 mph - N/A   Mostly Cloudy
10:52 AM 39.2 °F 34.2 °F 32.0 °F 75% 29.88 in 10.0 mi South 6.9 mph - N/A   Overcast
11:51 AM 42.8 °F 35.4 °F 28.4 °F 57% 29.86 in 10.0 mi SW 15.0 mph 19.6 mph N/A   Mostly Cloudy
12:51 PM 42.8 °F 34.3 °F 28.4 °F 57% 29.85 in 10.0 mi SSW 19.6 mph 31.1 mph N/A   Overcast
1:59 PM 37.4 °F 25.6 °F 33.8 °F 87% 29.83 in 10.0 mi South 26.5 mph 29.9 mph N/A   Mostly Cloudy
2:51 PM 37.4 °F 28.5 °F 33.8 °F 87% 29.81 in 7.0 mi South 15.0 mph - N/A Rain Light Rain
3:52 PM 37.4 °F 28.9 °F 33.8 °F 87% 29.80 in 6.0 mi South 13.8 mph - N/A Rain Light Rain
4:55 PM 35.6 °F 25.5 °F 33.8 °F 93% 29.78 in 7.0 mi SSE 17.3 mph - N/A   Overcast
5:57 PM 35.6 °F 26.2 °F 33.8 °F 93% 29.76 in 7.0 mi SSE 15.0 mph - N/A   Overcast
6:52 PM 35.6 °F 25.2 °F 33.8 °F 93% 29.77 in 7.0 mi South 18.4 mph 23.0 mph N/A   Overcast
7:54 PM 33.8 °F 24.3 °F 32.0 °F 93% 29.80 in 2.0 mi South 13.8 mph - N/A Snow Light Snow
8:10 PM 33.8 °F 22.8 °F 30.2 °F 87% 29.80 in 7.0 mi SSE 18.4 mph - N/A Snow Light Snow
8:55 PM 35.6 °F 25.9 °F 28.4 °F 75% 29.80 in 10.0 mi South 16.1 mph - N/A   Overcast
9:15 PM 33.8 °F 23.5 °F 28.4 °F 81% 29.81 in 10.0 mi South 16.1 mph - N/A   Overcast
9:35 PM 33.8 °F 23.9 °F 28.4 °F 81% 29.81 in 9.0 mi SW 15.0 mph 27.6 mph N/A   Overcast
9:55 PM 32.0 °F 22.5 °F 30.2 °F 93% 29.83 in 1.5 mi SSW 12.7 mph 17.3 mph N/A   Overcast
10:15 PM 30.2 °F 21.3 °F 30.2 °F 100% 29.83 in 0.8 mi WSW 10.4 mph 23.0 mph N/A   Overcast
10:35 PM 30.2 °F 26.7 °F 30.2 °F 100% 29.84 in 0.8 mi NNE 3.5 mph - 0.01 in   Overcast
10:55 PM 30.2 °F 22.6 °F 28.4 °F 93% 29.83 in 1.5 mi West 8.1 mph - 0.01 in   Overcast
11:15 PM 30.2 °F 22.6 °F 30.2 °F 100% 29.84 in 5.0 mi ESE 8.1 mph - N/A   Mostly Cloudy
11:35 PM 30.2 °F 25.4 °F 30.2 °F 100% 29.85 in 4.0 mi SSW 4.6 mph - N/A   Overcast
11:55 PM 30.2 °F 24.3 °F 30.2 °F 100% 29.84 in 2.0 mi South 5.8 mph - N/A   Overcast